Home   Weather   San Pedro Sula   Past weeks
Flag for Honduras

Past Weather in San Pedro Sula, Honduras — Yesterday and Last 2 Weeks

Now
84 °F

Passing clouds.


Feels Like: 96 °F
Forecast: 95 / 73 °F
Wind: 7 mph from North

Location: La Mesa San Pedro Sula

Current Time: Oct 17, 2019 at 8:05:40 pm

Latest Report: Oct 17, 2019 at 7:00 pm


Visibility: N/A

Pressure: 29.80 "Hg

Humidity: 84%

Dew Point: 79 °F

Location of San Pedro SulaLocation

Past Weather in San Pedro Sula — Graph

°F

San Pedro Sula Temperature Yesterday

Maximum temperature yesterday: 97 °F (at 2:00 pm)
Minimum temperature yesterday: 75 °F (at 6:00 am)
Average temperature yesterday: 86 °F

High & Low Weather Summary for the Past Weeks

 TemperatureHumidityPressure
High97 °F (Oct 16, 2:00 pm)100% (Oct 8, 1:00 am)29.95 "Hg (Oct 8, 1:00 am)
Low73 °F (Oct 10, 5:00 am)44% (Oct 16, 2:00 pm)29.71 "Hg (Oct 6, 4:00 pm)
Average82 °F79%29.84 "Hg
* Reported Oct 2 7:00 pm — Oct 17 7:00 pm, San Pedro Sula. Weather by CustomWeather, © 2019

Note: Actual official high and low records may vary slightly from our data, if they occured in-between our weather recording intervals... More about our weather records

Advertising

San Pedro Sula Weather History for the Previous 24 Hours

Scroll right to see more
 ConditionsComfort  
Time TempWeatherWind HumidityBarometerVisibility
7:00 pm
Thu, Oct 17
84 °FPassing clouds.7 mph84%29.80 "HgN/A
6:00 pm84 °FPassing clouds.7 mph84%29.77 "HgN/A
5:00 pm88 °FPassing clouds.12 mph75%29.77 "HgN/A
4:00 pm90 °FPassing clouds.15 mph67%29.74 "HgN/A
3:00 pm95 °FPassing clouds.9 mph47%29.74 "HgN/A
2:00 pm95 °FPassing clouds.6 mph50%29.77 "HgN/A
1:00 pm95 °FPassing clouds.3 mph47%29.80 "HgN/A
12:00 pm93 °FPassing clouds.7 mph49%29.83 "HgN/A
11:00 am91 °FPassing clouds.9 mph56%29.86 "HgN/A
10:00 am90 °FSunny.8 mph59%29.89 "Hg10 mi
8:00 am82 °FSunny.2 mph74%29.89 "Hg10 mi
7:00 am79 °FSunny.3 mph84%29.89 "Hg10 mi
6:00 am77 °FPassing clouds.6 mph89%29.86 "HgN/A
12:00 am79 °FPassing clouds.8 mph84%29.86 "HgN/A
11:00 pm
Wed, Oct 16
79 °FPassing clouds.6 mph89%29.89 "HgN/A
10:00 pm79 °FPartly cloudy.6 mph89%29.89 "HgN/A
9:00 pm79 °FPartly cloudy.6 mph84%29.89 "HgN/A
8:00 pm81 °FThunderstorms. Passing clouds.8 mph89%29.86 "Hg2 mi
Weather by CustomWeather, © 2019

See weather overview